Observations
| Time | Sensor | AQI | SAQ | Temp °C | Hum % | Pres Pa | CO μg/m³ | H₂S μg/m³ | NO μg/m³ | NO₂ μg/m³ | O₃ μg/m³ | SO₂ μg/m³ | CO₂e PPM | VOC PPM | PM1 μg/m³ | PM2.5 μg/m³ | PM4 μg/m³ | PM10 μg/m³ | TPS µm |
|---|---|---|---|---|---|---|---|---|---|---|---|---|---|---|---|---|---|---|---|
| Tuesday 11 August 2026 | |||||||||||||||||||
| 09:16 | Trim Patrick St | 1 | 25.3 | 52 | 71,272 | 0 | 0 | 1.61 | 7.54 | 13.33 | 5.32 | 3.71 | 8.55 | 9.41 | |||||
| 09:15 | Trim Patrick St | 1 | 25.2 | 52 | 71,458 | 0 | 0 | 1.66 | 9.27 | 11.2 | 4.58 | 2.86 | 7.78 | 8.56 | |||||
| 09:14 | Trim Patrick St | 1 | 25.2 | 51 | 71,619 | 0.02 | 0 | 1.67 | 11.49 | 13.6 | 4.73 | 2.86 | 7.85 | 8.63 | |||||
| 09:13 | Trim Patrick St | 1 | 25.2 | 51 | 71,711 | 0.02 | 0 | 1.72 | 7.88 | 11.08 | 5.26 | 3.71 | 8.63 | 9.49 | |||||
| 09:12 | Trim Patrick St | 1 | 25.1 | 51 | 71,898 | 0 | 0 | 1.77 | 10.17 | 30.69 | 5.09 | 3.71 | 7.87 | 8.66 | |||||
| 09:11 | Trim Market St | 1 | 30.2 | 40 | 65,837 | 0.07 | 0 | 0.71 | 8.52 | 20.86 | 0 | 0 | 2.89 | 4.3 | |||||
| 09:11 | Trim Patrick St | 1 | 25.1 | 52 | 71,990 | 0 | 0 | 1.84 | 11.12 | 24.05 | 4.78 | 2.86 | 7.03 | 7.73 | |||||
| 09:10 | Trim Patrick St | 1 | 25 | 52 | 72,149 | 0 | 0 | 1.89 | 9.7 | 19.59 | 4.72 | 3.71 | 8.59 | 9.44 | |||||
| 09:09 | Trim Market St | 1 | 30.1 | 40 | 65,776 | 0.07 | 0 | 0.71 | 8.89 | 12.49 | 0 | 1.43 | 4.44 | 4.89 | |||||
| 09:09 | Trim Patrick St | 1 | 25 | 53 | 72,393 | 0 | 0 | 1.92 | 8.2 | 10.77 | 3.97 | 3.71 | 8.5 | 9.35 | |||||
| 09:08 | Trim Patrick St | 1 | 24.9 | 53 | 72,597 | 0.02 | 0 | 1.95 | 11.45 | 15.65 | 4.3 | 3.71 | 8.47 | 9.31 | |||||
| 09:07 | Trim Market St | 1 | 29.8 | 41 | 65,672 | 0.08 | 0 | 0.77 | 8.67 | 23.65 | 0 | 0.71 | 3.89 | 4.28 | |||||
| 09:07 | Trim Patrick St | 1 | 24.9 | 54 | 72,721 | 0.05 | 0 | 1.98 | 11.28 | 4.77 | 4.18 | 2 | 6.92 | 7.61 | |||||
| 09:06 | Trim Patrick St | 1 | 24.8 | 53 | 72,976 | 0.08 | 0 | 1.98 | 11.69 | 8.5 | 3.7 | 2.86 | 7.71 | 8.48 | |||||
| 09:05 | Trim Market St | 1 | 29.6 | 42 | 65,594 | 0.13 | 0 | 0.8 | 9.02 | 8.24 | 0 | 0 | 2.82 | 3.1 | |||||
| 09:05 | Trim Patrick St | 1 | 24.7 | 54 | 73,257 | 0.1 | 0 | 2 | 10.77 | 11.4 | 4.27 | 2.86 | 8.46 | 9.31 | |||||
| 09:04 | Trim Market St | 1 | 29.5 | 42 | 65,538 | 0.24 | 0 | 0.8 | 8.64 | 12.19 | 0 | 1.43 | 3.86 | 4.24 | |||||
| 09:04 | Trim Patrick St | 1 | 24.6 | 53 | 73,508 | 0.07 | 0 | 2.17 | 11.83 | 17.97 | 4.93 | 2 | 6.96 | 7.66 | |||||
| 09:03 | Trim Market St | 1 | 29.3 | 42 | 65,527 | 0.12 | 0 | 0.84 | 9.08 | 9.47 | 0 | 0 | 3.32 | 3.65 | |||||
| 09:03 | Trim Patrick St | 1 | 24.5 | 53 | 73,605 | 0.06 | 0 | 2.25 | 11.93 | 17.52 | 3.86 | 3.71 | 8.51 | 9.36 | |||||